| time (UTC) | temp F | wind direction | speed MPH | gust MPH | rain 1hr in | rain 24hr in | rain mn in | humidity % | barometer mb |
| 20260509085537 | 78 | 161 | 5.0 | 9.0 | 0.00 | 0.00 | 0.00 | 83 | 1012.3 |
| 20260509084547 | 78 | 178 | 6.0 | 9.0 | 0.00 | 0.00 | 0.00 | 82 | 1012.5 |
| 20260509083516 | 78 | 184 | 5.0 | 7.0 | 0.00 | 0.00 | 0.00 | 82 | 1012.5 |
| 20260509082442 | 79 | 172 | 5.0 | 7.0 | 0.00 | 0.00 | 0.00 | 82 | 1012.5 |
| 20260509080345 | 79 | 176 | 3.0 | 5.0 | 0.00 | 0.00 | 0.00 | 82 | 1012.5 |
| 20260509075333 | 79 | 170 | 2.0 | 5.0 | 0.00 | 0.00 | 0.00 | 81 | 1012.6 |
| 20260509074349 | 79 | 190 | 3.0 | 5.0 | 0.00 | 0.00 | 0.00 | 81 | 1012.6 |
| 20260509073338 | 79 | 196 | 4.0 | 6.0 | 0.00 | 0.00 | 0.00 | 81 | 1012.6 |
| 20260509072310 | 79 | 201 | 4.0 | 6.0 | 0.00 | 0.00 | 0.00 | 80 | 1012.7 |
| 20260509071321 | 79 | 205 | 3.0 | 4.0 | 0.00 | 0.00 | 0.00 | 80 | 1012.9 |
| 20260509070247 | 79 | 191 | 1.0 | 3.0 | 0.00 | 0.00 | 0.00 | 80 | 1013.0 |
| 20260509065306 | 79 | 208 | 1.0 | 3.0 | 0.00 | 0.00 | 0.00 | 80 | 1013.1 |
| 20260509063116 | 79 | 243 | 2.0 | 5.0 | 0.00 | 0.00 | 0.00 | 81 | 1013.3 |
| 20260509060934 | 79 | 267 | 4.0 | 8.0 | 0.00 | 0.00 | 0.00 | 81 | 1013.5 |
| 20260509055943 | 79 | 288 | 5.0 | 8.0 | 0.00 | 0.00 | 0.00 | 81 | 1013.5 |
| 20260509054919 | 78 | 309 | 3.0 | 7.0 | 0.00 | 0.00 | 0.00 | 82 | 1013.6 |
| 20260509050523 | 79 | 269 | 7.0 | 15.0 | 0.00 | 0.00 | 0.00 | 82 | 1014.0 |
| 20260509045530 | 79 | 291 | 10.0 | 15.0 | 0.00 | 0.00 | 0.00 | 82 | 1014.2 |
| 20260509044518 | 80 | 295 | 9.0 | 12.0 | 0.00 | 0.00 | 0.00 | 81 | 1014.1 |
| 20260509043455 | 80 | 277 | 8.0 | 15.0 | 0.00 | 0.00 | 0.00 | 81 | 1014.1 |
| 20260509041419 | 80 | 198 | 7.0 | 11.0 | 0.00 | 0.00 | 0.00 | 81 | 1013.6 |
| 20260509040404 | 80 | 184 | 9.0 | 12.0 | 0.00 | 0.00 | 0.00 | 81 | 1013.4 |
| 20260509034301 | 80 | 170 | 8.0 | 11.0 | 0.00 | 0.00 | 0.00 | 82 | 1013.3 |
| 20260509033311 | 81 | 202 | 8.0 | 11.0 | 0.00 | 0.00 | 0.00 | 81 | 1013.3 |
| 20260509032307 | 81 | 175 | 8.0 | 13.0 | 0.00 | 0.00 | 0.00 | 81 | 1013.4 |
| 20260509031242 | 81 | 155 | 7.0 | 14.0 | 0.00 | 0.00 | 0.00 | 82 | 1013.5 |
| 20260509030254 | 81 | 153 | 10.0 | 15.0 | 0.00 | 0.00 | 0.00 | 81 | 1013.5 |
| 20260509025315 | 81 | 170 | 9.0 | 15.0 | 0.00 | 0.00 | 0.00 | 82 | 1013.4 |
| 20260509023205 | 80 | 129 | 9.0 | 14.0 | 0.00 | 0.00 | 0.00 | 83 | 1013.4 |
| 20260509022214 | 80 | 129 | 8.0 | 14.0 | 0.00 | 0.00 | 0.00 | 83 | 1013.2 |
| 20260509021204 | 80 | 146 | 7.0 | 12.0 | 0.00 | 0.00 | 0.00 | 83 | 1013.3 |
| 20260509020142 | 80 | 147 | 7.0 | 12.0 | 0.00 | 0.00 | 0.00 | 83 | 1013.3 |
| 20260509015149 | 80 | 132 | 5.0 | 11.0 | 0.00 | 0.00 | 0.00 | 83 | 1013.3 |
| 20260509014151 | 80 | 128 | 5.0 | 11.0 | 0.00 | 0.00 | 0.00 | 83 | 1013.2 |
| 20260509013133 | 80 | 152 | 6.0 | 11.0 | 0.00 | 0.00 | 0.00 | 83 | 1013.1 |
| 20260509012104 | 80 | 146 | 8.0 | 13.0 | 0.00 | 0.00 | 0.00 | 82 | 1012.9 |
| 20260509005932 | 80 | 127 | 6.0 | 13.0 | 0.00 | 0.00 | 0.00 | 82 | 1012.8 |
| 20260509003826 | 80 | 133 | 7.0 | 12.0 | 0.00 | 0.00 | 0.00 | 82 | 1012.8 |
| 20260509002813 | 80 | 132 | 7.0 | 14.0 | 0.00 | 0.00 | 0.00 | 81 | 1012.8 |
| 20260509001826 | 80 | 132 | 8.0 | 15.0 | 0.00 | 0.00 | 0.00 | 81 | 1012.6 |
| 20260509000800 | 80 | 132 | 7.0 | 15.0 | 0.00 | 0.00 | 0.00 | 81 | 1012.5 |
| 20260508235802 | 81 | 150 | 8.0 | 15.0 | 0.00 | 0.00 | 0.00 | 80 | 1012.3 |
| 20260508234817 | 81 | 148 | 7.0 | 14.0 | 0.00 | 0.00 | 0.00 | 79 | 1012.2 |
| 20260508233742 | 81 | 146 | 7.0 | 14.0 | 0.00 | 0.00 | 0.00 | 79 | 1012.0 |
| 20260508232718 | 81 | 143 | 8.0 | 14.0 | 0.00 | 0.00 | 0.00 | 79 | 1011.8 |
| 20260508231718 | 81 | 144 | 7.0 | 14.0 | 0.00 | 0.00 | 0.00 | 79 | 1011.9 |
| 20260508225510 | 81 | 153 | 8.0 | 15.0 | 0.00 | 0.00 | 0.00 | 77 | 1011.8 |
| 20260508224436 | 82 | 129 | 7.0 | 15.0 | 0.00 | 0.00 | 0.00 | 77 | 1011.8 |
| 20260508223429 | 82 | 128 | 6.0 | 13.0 | 0.00 | 0.00 | 0.00 | 78 | 1011.7 |
| 20260508222412 | 82 | 150 | 6.0 | 13.0 | 0.00 | 0.00 | 0.00 | 77 | 1011.6 |
| 20260508220312 | 82 | 134 | 7.0 | 13.0 | 0.00 | 0.00 | 0.00 | 78 | 1011.7 |
| 20260508215243 | 81 | 109 | 8.0 | 15.0 | 0.00 | 0.00 | 0.00 | 78 | 1011.7 |
| 20260508214247 | 82 | 131 | 8.0 | 15.0 | 0.00 | 0.00 | 0.00 | 78 | 1011.7 |
| 20260508213220 | 82 | 131 | 8.0 | 14.0 | 0.00 | 0.00 | 0.00 | 77 | 1011.8 |
| 20260508212146 | 82 | 111 | 7.0 | 13.0 | 0.00 | 0.00 | 0.00 | 77 | 1012.1 |
| 20260508211121 | 82 | 122 | 8.0 | 12.0 | 0.00 | 0.00 | 0.00 | 78 | 1012.1 |
| 20260508210045 | 82 | 126 | 8.0 | 14.0 | 0.00 | 0.00 | 0.00 | 78 | 1012.1 |
| 20260508205022 | 82 | 116 | 8.0 | 14.0 | 0.00 | 0.00 | 0.00 | 78 | 1012.1 |
| 20260508204041 | 82 | 103 | 7.0 | 14.0 | 0.00 | 0.00 | 0.00 | 77 | 1012.1 |
| 20260508203029 | 82 | 109 | 6.0 | 12.0 | 0.00 | 0.00 | 0.00 | 77 | 1012.3 |
| 20260508202033 | 82 | 86 | 6.0 | 12.0 | 0.00 | 0.00 | 0.00 | 76 | 1012.3 |
| 20260508201039 | 82 | 123 | 7.0 | 12.0 | 0.00 | 0.00 | 0.00 | 76 | 1012.4 |
| 20260508200045 | 82 | 119 | 7.0 | 12.0 | 0.00 | 0.00 | 0.00 | 77 | 1012.6 |
| 20260508195033 | 83 | 119 | 6.0 | 12.0 | 0.00 | 0.00 | 0.00 | 77 | 1012.7 |
| 20260508194027 | 82 | 125 | 6.0 | 12.0 | 0.00 | 0.00 | 0.00 | 76 | 1012.9 |
| 20260508193026 | 82 | 86 | 8.0 | 14.0 | 0.00 | 0.00 | 0.00 | 76 | 1013.2 |
| 20260508191956 | 82 | 111 | 7.0 | 14.0 | 0.00 | 0.00 | 0.00 | 76 | 1013.3 |
| 20260508191012 | 82 | 84 | 7.0 | 12.0 | 0.00 | 0.00 | 0.00 | 76 | 1013.4 |
| 20260508190019 | 83 | 110 | 6.0 | 13.0 | 0.00 | 0.00 | 0.00 | 75 | 1013.7 |
| 20260508185010 | 83 | 89 | 7.0 | 13.0 | 0.00 | 0.00 | 0.00 | 76 | 1013.6 |
| 20260508183938 | 83 | 101 | 7.0 | 15.0 | 0.00 | 0.00 | 0.00 | 75 | 1013.7 |
| 20260508181737 | 83 | 78 | 5.0 | 13.0 | 0.00 | 0.00 | 0.00 | 74 | 1013.9 |
| 20260508180713 | 83 | 119 | 5.0 | 13.0 | 0.00 | 0.00 | 0.00 | 73 | 1013.9 |
| 20260508175713 | 84 | 103 | 5.0 | 12.0 | 0.00 | 0.00 | 0.00 | 73 | 1014.0 |
| 20260508173629 | 84 | 69 | 6.0 | 11.0 | 0.00 | 0.00 | 0.00 | 73 | 1014.2 |
| 20260508172552 | 84 | 103 | 5.0 | 11.0 | 0.00 | 0.00 | 0.00 | 73 | 1014.3 |
| 20260508171531 | 84 | 92 | 5.0 | 11.0 | 0.00 | 0.00 | 0.00 | 74 | 1014.3 |
| 20260508170523 | 83 | 57 | 6.0 | 11.0 | 0.00 | 0.00 | 0.00 | 72 | 1014.5 |
| 20260508165507 | 84 | 47 | 4.0 | 9.0 | 0.00 | 0.00 | 0.00 | 72 | 1014.7 |
| 20260508164438 | 83 | 82 | 5.0 | 10.0 | 0.00 | 0.00 | 0.00 | 75 | 1014.9 |
| 20260508163405 | 83 | 73 | 5.0 | 9.0 | 0.00 | 0.00 | 0.00 | 75 | 1015.0 |
| 20260508162349 | 82 | 94 | 5.0 | 9.0 | 0.00 | 0.00 | 0.00 | 75 | 1015.1 |
| 20260508161324 | 83 | 57 | 4.0 | 9.0 | 0.00 | 0.00 | 0.00 | 75 | 1015.2 |
| 20260508160312 | 83 | 33 | 5.0 | 9.0 | 0.00 | 0.00 | 0.00 | 73 | 1015.4 |
| 20260508154201 | 84 | 17 | 4.0 | 9.0 | 0.00 | 0.00 | 0.00 | 72 | 1015.5 |
| 20260508153205 | 82 | 311 | 4.0 | 6.0 | 0.00 | 0.00 | 0.00 | 72 | 1015.6 |
| 20260508152148 | 82 | 300 | 3.0 | 7.0 | 0.00 | 0.00 | 0.00 | 73 | 1015.6 |
| 20260508151122 | 81 | 322 | 4.0 | 7.0 | 0.00 | 0.00 | 0.00 | 74 | 1015.6 |
| 20260508150133 | 81 | 309 | 4.0 | 7.0 | 0.00 | 0.00 | 0.00 | 74 | 1015.6 |
| 20260508145059 | 81 | 319 | 4.0 | 8.0 | 0.00 | 0.00 | 0.00 | 75 | 1015.5 |
| 20260508144039 | 80 | 292 | 6.0 | 9.0 | 0.00 | 0.00 | 0.00 | 76 | 1015.6 |
| 20260508143048 | 80 | 311 | 5.0 | 9.0 | 0.00 | 0.00 | 0.00 | 77 | 1015.6 |
| 20260508142012 | 80 | 324 | 6.0 | 10.0 | 0.00 | 0.00 | 0.00 | 78 | 1015.6 |
| 20260508141021 | 80 | 314 | 7.0 | 10.0 | 0.00 | 0.00 | 0.00 | 78 | 1015.6 |
| 20260508134851 | 79 | 323 | 7.0 | 11.0 | 0.00 | 0.00 | 0.00 | 80 | 1015.5 |
| 20260508132714 | 78 | 302 | 7.0 | 10.0 | 0.00 | 0.00 | 0.00 | 80 | 1015.5 |
| 20260508130449 | 77 | 302 | 3.0 | 7.0 | 0.00 | 0.00 | 0.00 | 80 | 1015.3 |
| 20260508125424 | 77 | 292 | 3.0 | 6.0 | 0.00 | 0.00 | 0.00 | 80 | 1015.2 |
| 20260508123314 | 76 | 275 | 3.0 | 5.0 | 0.00 | 0.00 | 0.00 | 79 | 1015.1 |
| 20260508122239 | 76 | 268 | 4.0 | 6.0 | 0.00 | 0.00 | 0.00 | 80 | 1015.1 |
| 20260508121205 | 75 | 269 | 4.0 | 6.0 | 0.00 | 0.00 | 0.00 | 79 | 1015.0 |
| 20260508120144 | 75 | 263 | 5.0 | 7.0 | 0.00 | 0.00 | 0.00 | 80 | 1014.9 |
| 20260508115123 | 75 | 270 | 5.0 | 7.0 | 0.00 | 0.00 | 0.00 | 80 | 1014.7 |
| 20260508114122 | 74 | 252 | 4.0 | 6.0 | 0.00 | 0.00 | 0.00 | 80 | 1014.7 |
| 20260508113122 | 74 | 246 | 3.0 | 6.0 | 0.00 | 0.00 | 0.00 | 80 | 1014.5 |
| 20260508112052 | 74 | 252 | 4.0 | 6.0 | 0.00 | 0.00 | 0.00 | 80 | 1014.4 |
| 20260508111033 | 74 | 253 | 4.0 | 6.0 | 0.00 | 0.00 | 0.00 | 80 | 1014.3 |
| 20260508104907 | 74 | 269 | 5.0 | 7.0 | 0.00 | 0.00 | 0.00 | 79 | 1014.1 |
| 20260508103846 | 74 | 272 | 5.0 | 7.0 | 0.00 | 0.00 | 0.00 | 79 | 1013.9 |
| 20260508102857 | 74 | 285 | 6.0 | 7.0 | 0.00 | 0.00 | 0.00 | 79 | 1013.9 |
| 20260508101903 | 74 | 275 | 7.0 | 8.0 | 0.00 | 0.00 | 0.00 | 79 | 1013.8 |
| 20260508100849 | 74 | 267 | 6.0 | 8.0 | 0.00 | 0.00 | 0.00 | 79 | 1013.6 |
| 20260508095904 | 74 | 261 | 6.0 | 7.0 | 0.00 | 0.00 | 0.00 | 79 | 1013.4 |
| 20260508094844 | 74 | 264 | 5.0 | 7.0 | 0.00 | 0.00 | 0.00 | 78 | 1013.4 |
| 20260508093857 | 74 | 255 | 5.0 | 6.0 | 0.00 | 0.00 | 0.00 | 78 | 1013.3 |
| 20260508092833 | 74 | 252 | 4.0 | 6.0 | 0.00 | 0.00 | 0.00 | 78 | 1013.2 |
| 20260508091848 | 74 | 257 | 4.0 | 6.0 | 0.00 | 0.00 | 0.00 | 78 | 1013.2 |
| 20260508090833 | 74 | 253 | 3.0 | 5.0 | 0.00 | 0.00 | 0.00 | 77 | 1013.2 |